EHI
9 20 35 39 35 31 28 26 23 18 14 12 12 13 15 17 16 13 12 11 9 6 5 7 8 7 4 4 4 3 5 6 7 8 9 11 13 13 13 14 13 11 11
12 22 35 40 35 30 26 24 22 18 13 9 8 11 14 15 13 12 11 11 9 7 6 7 7 5 4 3 3 4 5 6 7 7 7 8 11 12 13 14 13 12 12
15 22 34 41 37 28 22 19 19 18 13 7 5 8 11 12 11 10 9 9 8 7 7 7 5 4 3 2 3 4 5 7 8 7 5 4 6 10 12 13 13 11 10
14 19 32 42 38 29 21 17 16 16 12 7 5 7 9 9 9 8 7 7 6 6 6 5 3 3 4 3 3 4 5 6 7 5 3 2 3 7 10 10 10 9 7
12 18 30 40 40 32 23 17 14 13 9 6 5 6 7 7 6 5 5 5 5 4 3 2 2 2 4 5 4 4 5 5 4 2 1 0 2 5 7 7 7 7 6
12 19 29 37 39 34 25 18 14 9 5 3 3 4 5 5 4 4 4 5 4 3 2 2 2 1 3 5 5 5 4 2 1 0 0 0 1 4 6 6 7 8 7
13 19 28 34 37 34 27 21 15 9 4 2 2 3 4 4 4 4 5 5 5 4 4 4 4 3 3 5 6 5 4 2 1 0 0 0 1 5 9 9 9 9 8
14 19 26 31 33 32 28 22 17 12 6 2 1 2 2 2 3 4 4 4 6 6 6 6 6 6 6 6 6 6 6 5 3 1 0 0 1 6 11 12 10 9 9
14 18 23 26 27 27 25 21 17 13 6 2 2 2 2 1 1 2 3 3 4 5 6 6 6 7 8 7 5 5 6 6 4 2 1 0 2 6 10 11 10 8 8
13 16 20 22 21 19 17 16 14 11 6 2 3 4 3 1 0 1 2 2 2 3 4 4 4 5 7 6 5 5 4 4 4 3 2 1 4 7 10 11 11 9 8
11 13 16 18 15 12 12 11 10 8 5 3 3 3 3 1 0 0 1 1 2 3 3 3 3 3 4 5 5 4 3 2 3 3 2 4 8 11 11 13 13 12 11
11 10 11 12 11 10 9 9 7 6 3 2 1 1 1 0 0 0 0 1 2 3 3 3 3 3 2 3 4 3 2 1 2 3 3 7 11 12 12 14 15 14 13
13 12 9 8 8 8 7 7 6 4 3 1 0 0 0 0 0 0 0 0 1 2 3 4 4 4 3 3 3 3 1 0 1 2 4 9 12 12 13 15 16 15 15
16 13 9 7 6 5 5 4 3 3 2 2 1 0 0 0 0 0 0 0 0 1 2 4 4 4 3 2 3 2 1 0 0 1 4 9 12 12 14 18 19 18 17
15 12 9 7 5 4 4 4 3 2 1 1 1 0 0 0 0 0 0 0 0 0 1 2 3 2 2 1 1 1 0 0 0 0 2 8 12 13 14 18 19 18 18
13 10 9 8 5 4 5 6 5 3 1 1 0 0 0 0 0 0 0 0 1 1 1 1 2 2 2 2 2 1 1 0 1 1 2 5 9 10 11 15 15 14 14
12 11 10 11 9 7 7 8 7 6 4 2 0 0 0 0 0 1 1 1 2 2 2 3 3 3 3 3 3 3 2 2 2 2 3 4 5 6 8 11 13 13 13
15 14 14 15 15 13 10 9 9 8 6 5 2 0 0 0 1 2 2 3 3 3 3 3 3 3 3 3 3 3 3 3 3 3 3 2 3 3 4 7 11 13 14
20 19 18 19 19 18 15 13 12 11 9 7 4 2 1 2 3 4 3 3 3 3 3 3 3 3 3 2 2 2 2 3 3 2 1 1 1 1 1 3 7 10 12
22 22 22 21 21 22 21 18 16 15 12 9 7 4 3 5 6 5 4 3 4 4 4 3 3 3 2 2 1 1 1 1 2 1 0 0 0 0 0 1 2 5 7
24 25 26 24 24 25 25 21 19 18 16 14 10 7 7 7 8 7 5 5 5 5 4 2 2 2 1 1 1 0 0 0 0 0 0 0 0 0 0 0 0 1 2
27 28 29 28 28 29 27 23 20 19 18 16 13 11 10 10 9 9 8 6 6 6 3 1 1 1 0 0 0 0 0 0 0 1 1 0 0 0 0 0 0 0 0
29 30 30 29 29 29 28 25 22 20 19 17 15 14 12 11 10 10 9 6 5 5 4 2 1 1 1 0 0 0 0 0 1 2 1 0 0 0 0 0 0 0 0
32 31 31 29 27 27 27 26 24 22 19 17 16 14 12 11 10 9 7 5 3 4 5 4 2 2 2 1 0 0 0 0 1 2 2 0 0 0 0 0 0 0 0
33 34 33 30 27 26 25 25 25 23 20 16 14 13 11 10 9 8 6 4 3 3 4 3 3 3 3 1 0 0 0 0 1 2 1 0 0 0 0 0 0 0 0
33 35 35 31 27 25 24 23 24 24 21 16 14 12 10 10 9 7 6 4 3 3 3 3 3 3 3 2 1 1 1 0 0 1 1 0 0 0 0 0 0 0 0
Wind_Speed
6 8 13 14 14 13 13 13 13 13 13 13 13 13 13 13 13 13 13 12 12 11 11 11 11 11 11 11 11 11 12 12 12 12 12 12 12 12 12 12 11 8 12
11 9 14 14 14 14 13 13 13 13 13 13 13 13 12 12 12 12 12 11 11 11 11 10 10 10 10 10 10 10 11 11 11 11 11 10 11 11 12 12 11 7 11
12 9 12 14 14 14 13 13 13 13 13 12 12 12 12 11 11 11 11 10 10 10 10 9 9 9 9 10 9 10 10 10 9 9 8 4 6 10 11 12 11 11 10
13 9 10 14 14 14 13 13 13 13 13 12 11 11 11 11 10 10 10 9 9 8 8 8 8 8 8 8 9 9 9 9 8 8 4 3 4 9 11 12 11 11 11
11 9 11 15 14 14 13 13 13 13 12 12 11 11 10 10 9 9 9 8 8 8 7 7 7 7 7 7 8 8 8 7 6 4 3 3 3 8 11 11 11 11 10
10 9 11 15 14 14 13 12 12 12 12 12 11 11 10 9 8 8 8 8 7 7 7 7 7 6 6 7 6 6 6 5 4 2 2 3 4 9 11 12 11 11 10
10 8 10 14 14 14 13 12 12 12 12 11 11 10 10 9 8 8 8 8 7 6 6 6 6 5 5 5 5 5 5 5 3 2 2 3 5 10 12 12 11 10 10
13 9 9 14 15 14 13 12 12 12 11 11 10 10 9 8 7 7 7 7 7 6 6 5 5 5 5 4 4 3 4 4 3 4 3 3 6 10 12 12 11 10 10
11 10 8 8 10 13 13 12 12 11 11 10 9 9 9 8 7 7 6 6 6 6 6 5 5 5 4 4 3 3 3 3 2 2 4 3 7 10 12 12 11 10 10
9 9 8 7 6 6 7 12 12 11 11 10 9 9 9 8 8 7 6 6 6 6 6 5 5 5 4 4 4 4 4 3 2 2 2 4 9 11 12 12 12 11 10
8 7 7 7 6 6 6 9 9 10 9 9 8 9 7 4 4 4 6 7 7 6 6 6 5 5 4 4 5 5 3 2 2 2 2 6 9 11 12 12 12 12 11
9 8 7 7 7 6 6 5 4 4 4 4 4 4 3 3 3 4 5 7 6 6 6 6 5 4 3 2 3 3 1 3 2 2 3 8 10 11 12 12 12 12 11
10 9 8 8 7 6 4 4 3 2 3 3 4 4 3 2 2 2 1 2 3 4 2 2 2 1 1 2 1 2 2 2 2 2 4 9 9 11 13 13 12 12 11
10 9 8 8 7 6 5 4 3 3 3 3 3 4 3 2 2 2 2 2 2 1 2 1 1 2 2 2 2 2 3 2 2 2 4 10 10 11 12 13 12 12 11
9 8 8 8 8 6 5 4 4 3 4 4 3 4 4 3 3 3 2 2 2 2 2 2 2 2 2 2 2 3 3 3 3 3 3 9 10 11 12 13 13 12 12
9 9 7 8 8 7 5 4 4 4 4 4 4 5 5 4 3 3 2 2 2 2 3 3 3 2 2 2 2 2 3 3 3 4 3 5 10 11 11 12 13 12 12
10 9 8 8 7 7 6 5 4 4 4 4 4 5 5 4 4 3 2 2 2 3 3 2 2 2 2 1 2 2 2 3 3 3 3 3 4 10 11 11 11 12 12
10 9 9 8 8 6 5 4 3 3 4 3 3 3 4 4 4 3 2 3 3 2 2 2 2 2 1 1 1 2 1 2 3 3 3 3 3 4 7 10 10 10 11
10 10 8 7 8 7 5 4 3 3 3 3 3 3 4 4 4 3 3 2 3 2 2 2 2 2 2 1 2 1 2 2 3 3 3 4 4 3 3 6 10 10 10
10 9 8 8 7 6 4 3 2 2 2 2 3 3 4 3 4 3 2 3 3 2 2 1 2 1 2 2 2 1 2 2 2 3 4 3 3 4 4 4 4 6 10
9 9 8 8 7 6 4 3 3 3 2 2 2 3 4 4 3 3 3 3 3 3 3 3 2 2 1 1 1 1 2 2 2 3 2 2 3 4 4 4 4 3 4
9 9 8 8 8 7 5 4 3 3 2 2 2 2 3 3 3 3 4 3 3 2 2 2 2 2 1 2 2 1 1 3 3 2 2 3 4 3 4 6 5 5 4
10 11 9 8 8 7 5 3 2 2 1 1 1 2 3 3 4 3 4 4 3 3 3 3 3 4 2 1 2 3 3 3 2 2 2 2 3 3 3 4 5 5 6
11 9 8 7 7 6 6 5 5 4 3 3 3 2 3 3 3 3 4 4 4 4 4 4 4 3 4 2 1 1 2 3 2 1 3 2 2 3 3 3 4 5 5
9 8 7 7 6 5 6 7 6 4 3 2 2 3 3 3 3 3 3 4 4 4 4 4 3 3 3 3 2 2 1 1 2 2 2 2 2 2 3 3 3 4 5
7 7 7 7 5 5 6 6 6 5 4 4 3 3 3 2 2 3 3 4 4 4 4 4 4 4 4 4 3 3 3 2 3 3 3 2 2 3 3 3 3 3 4
Wind_Direction
157 161 147 137 130 125 121 117 114 113 110 110 109 108 108 108 109 110 111 111 112 112 110 109 110 109 109 114 122 126 126 125 125 126 127 128 128 128 127 123 121 119 121
153 156 146 140 133 129 125 122 121 119 117 115 115 114 113 113 113 114 114 112 112 114 113 112 112 112 109 109 118 127 130 128 126 128 130 130 132 134 136 131 129 129 127
144 149 145 140 135 132 130 127 125 124 122 120 119 118 118 118 117 116 115 114 113 115 118 119 118 115 113 111 112 120 123 124 127 127 129 128 138 141 140 136 137 133 132
145 147 145 141 138 136 134 132 130 129 128 125 123 123 124 123 122 122 120 119 118 117 120 125 127 123 119 117 117 120 123 127 130 131 127 135 143 145 143 141 139 136 134
140 144 147 143 141 139 137 136 135 134 132 131 130 129 129 128 127 127 126 125 124 124 125 129 132 130 127 123 122 120 119 124 128 125 131 135 136 150 151 146 142 138 136
137 142 148 145 143 141 139 138 139 140 138 138 137 135 133 132 133 135 134 133 133 131 130 131 132 132 131 130 129 129 127 118 110 123 137 147 155 162 158 153 148 144 140
140 145 149 146 145 143 141 141 143 144 144 143 143 142 140 139 139 139 139 140 142 141 141 141 141 141 140 139 135 136 143 144 139 145 151 167 170 166 163 161 157 153 150
145 148 150 150 148 147 146 146 146 147 148 148 149 149 148 147 144 144 146 150 150 149 152 157 158 156 156 157 157 157 154 161 154 154 162 175 172 171 168 167 164 164 161
145 148 151 152 151 152 153 152 151 151 152 154 154 155 157 156 157 157 157 161 164 163 164 171 181 181 181 180 187 191 181 168 152 168 176 180 181 179 175 171 169 169 168
145 152 153 150 146 150 154 156 155 156 159 160 160 160 163 163 166 170 169 177 179 177 181 186 194 203 206 202 205 210 198 174 161 171 188 196 190 183 180 176 174 175 175
148 154 152 151 150 150 153 159 158 160 163 164 164 165 164 163 169 177 187 191 192 193 197 199 204 217 226 228 227 223 210 172 158 177 195 195 193 189 187 184 182 181 182
161 162 157 153 152 150 156 148 151 157 161 162 161 165 158 163 182 187 198 200 202 204 206 207 213 223 237 248 243 233 195 177 180 192 198 192 192 194 195 192 188 188 189
163 161 160 159 157 156 152 149 151 149 157 166 171 171 161 159 177 189 188 207 208 209 213 218 232 235 242 239 235 210 198 193 195 198 194 192 191 196 199 196 195 195 195
157 162 162 162 161 162 155 159 163 161 166 176 183 173 162 162 173 179 183 190 189 192 200 212 224 231 239 236 222 206 200 198 203 200 196 195 196 197 198 197 199 200 198
154 160 163 163 163 162 155 165 165 171 178 181 183 186 175 174 182 183 188 191 194 189 194 210 221 226 237 237 223 206 202 203 200 193 193 197 199 203 202 200 201 203 202
159 164 162 162 162 160 164 169 172 179 182 178 187 192 182 181 181 177 184 199 203 201 202 201 201 207 224 216 220 205 200 200 195 195 194 201 207 207 208 206 204 205 206
162 162 162 163 157 157 163 167 169 175 175 179 187 188 182 179 181 180 183 197 205 201 199 198 202 194 208 216 235 230 208 199 187 197 197 198 212 216 212 210 208 208 210
160 160 164 163 159 160 162 161 164 165 169 179 180 182 184 179 174 173 180 195 194 180 176 182 190 194 203 202 228 250 238 217 205 206 205 208 211 218 218 216 210 208 211
162 162 162 159 164 165 159 157 163 160 168 174 174 178 184 182 173 168 181 186 174 167 178 191 179 180 183 205 231 244 245 231 220 215 208 213 205 202 203 210 207 208 211
163 164 164 161 163 159 149 135 133 139 164 171 179 184 178 181 177 169 171 172 164 161 175 173 178 182 178 195 237 260 261 249 226 214 216 216 206 203 201 203 204 212 215
163 162 170 163 165 158 155 158 160 178 183 183 194 186 178 182 180 170 171 173 169 168 182 179 170 171 195 160 98 335 318 292 254 233 220 209 220 214 201 199 200 201 214
171 169 173 170 169 171 173 173 173 173 184 188 190 184 182 182 185 186 179 175 173 169 176 174 163 161 203 162 143 123 341 328 302 252 217 203 217 210 207 207 199 201 206
176 176 179 178 174 174 164 140 120 96 79 101 193 195 204 191 187 187 181 174 175 177 189 190 177 169 189 205 166 155 163 216 274 294 249 217 213 209 217 211 205 206 206
184 179 174 173 172 171 160 158 162 173 188 202 196 199 215 205 198 192 186 181 181 184 188 196 182 175 169 189 216 203 183 170 170 273 301 270 235 224 223 226 214 213 209
175 169 168 166 168 168 169 172 175 183 195 190 181 192 210 220 214 202 193 186 190 191 191 192 184 183 177 181 190 192 207 203 174 174 248 278 280 241 222 222 216 213 209
165 162 158 158 168 171 173 176 179 181 184 182 193 199 209 217 223 219 203 195 194 194 195 195 193 189 190 190 196 192 185 187 201 188 213 241 257 259 238 227 219 214 212